Jersey, United Kingdom

2:51 AM BST on March 26, 2017 (GMT +0100)
Jersey

Weather History for EGJJ - December, 2013

Change the Weather History Date:

Tuesday, December 17, 2013

  Actual Average Record
Temperature  
Mean Temperature 46 °F -  
Max Temperature 49 °F 45 °F 55 °F (2015)
Min Temperature 44 °F 39 °F 30 °F (2007)
Degree Days  
Heating Degree Days 18    
Moisture  
Dew Point 45 °F    
Average Humidity 95    
Maximum Humidity 100    
Minimum Humidity 79    
Precipitation  
Precipitation 0.00 in - - ()
Sea Level Pressure  
Sea Level Pressure 30.12 in    
Wind  
Wind Speed 13 mph ()    
Max Wind Speed 22 mph    
Max Gust Speed -    
Visibility 3.9 miles    
Events Rain    
Averages and records for this station are not official NWS values.
T = Trace of Precipitation, MM = Missing Value Source: Averaged Metar Reports

Daily Weather History Graph

Daily Weather History Graph

Search for Another Location

Airport or City:

Trip Planner

Search our weather history database for the weather conditions in past years. The results will help you decide how hot, cold, wet, or windy it might be!

Date:

Astronomy

Dec. 17, 2013 Rise Set
Actual Time 7:58 AM GMT 4:11 PM GMT
Civil Twilight 7:21 AM GMT 4:48 PM GMT
Nautical Twilight 6:40 AM GMT 5:29 PM GMT
Astronomical Twilight 6:01 AM GMT 6:08 PM GMT
Moon 4:44 PM GMT (12/17) 7:38 AM GMT (12/17)
Length of Visible Light 9h 27m
Length of Day
8h 12m
Full, 100% of the Moon is Illuminated
Dec 17
Full
Dec 25
Last Quarter
Jan 1
New
Jan 8
First Quarter
Jan 16
Full

Hourly Weather History & Observations

Time (GMT) Temp. Windchill Dew Point Humidity Pressure Visibility Wind Dir Wind Speed Gust Speed Precip Events Conditions
12:00 AM 47 °F - 46 °F 94% 30.11 in 2 mi North 17.3 mph - - Rain Light Drizzle
1:00 AM 46 °F - 46 °F 97% 30.12 in 1 mi North 17.3 mph - - Rain Light Rain
2:00 AM 46 °F - 45 °F 96% 30.14 in 3 mi North 18.4 mph - - Rain Heavy Rain
3:00 AM 46 °F - 45 °F 95% 30.16 in 3 mi North 15.0 mph - - Rain Light Drizzle
3:50 AM 44.6 °F 37.4 °F 44.6 °F 100% 30.15 in 2.2 mi North 16.1 mph - N/A Rain Rain
4:00 AM 46 °F - 45 °F 94% 30.18 in 2 mi North 13.8 mph - - Rain Light Rain
4:20 AM 44.6 °F 38.4 °F 44.6 °F 100% 30.15 in 1.9 mi North 12.7 mph - N/A Rain Rain
4:50 AM 44.6 °F 38.1 °F 44.6 °F 100% 30.18 in 2.5 mi NNE 13.8 mph - N/A   Drizzle
5:00 AM 45 °F - 44 °F 96% 30.19 in 2 mi NNE 11.5 mph - - Rain Light Rain
5:20 AM 44.6 °F 39.7 °F 44.6 °F 100% 30.18 in 3.1 mi NNE 9.2 mph - N/A   Light Drizzle
5:50 AM 44.6 °F 37.2 °F 44.6 °F 100% 30.18 in 3.7 mi NNE 17.3 mph - N/A Rain Light Rain
6:00 AM 45 °F - 44 °F 93% 30.19 in 4 mi NE 12.7 mph - - Rain Light Rain
6:20 AM 44.6 °F 39.7 °F 44.6 °F 100% 30.18 in 3.7 mi NNE 9.2 mph - N/A Rain Light Rain
6:50 AM 44.6 °F 38.8 °F 44.6 °F 100% 30.18 in 3.7 mi NE 11.5 mph - N/A Rain Light Rain
7:00 AM 45 °F - 44 °F 93% 30.20 in 4 mi NE 12.7 mph - - Rain Light Rain
7:20 AM 44.6 °F 38.8 °F 42.8 °F 93% 30.18 in 3.1 mi NE 11.5 mph - N/A Rain Rain
7:50 AM 44.6 °F 38.8 °F 42.8 °F 93% 30.21 in 5.0 mi NE 11.5 mph - N/A Rain Light Rain
8:00 AM 45 °F - 44 °F 94% 30.21 in 5 mi NE 11.5 mph - - Rain Light Rain
8:20 AM 44.6 °F 39.2 °F 42.8 °F 93% 30.18 in 5.0 mi NNE 10.4 mph - N/A Rain Light Rain
8:50 AM 44.6 °F 37.8 °F 44.6 °F 100% 30.18 in 4.3 mi ENE 15.0 mph - N/A Rain Light Rain
9:00 AM 45 °F - 44 °F 93% 30.21 in 4 mi ENE 15.0 mph - - Rain Light Rain
9:20 AM 44.6 °F 37.8 °F 42.8 °F 93% 30.18 in 6.2 mi ENE 15.0 mph - N/A Rain Light Rain
9:50 AM 44.6 °F 37.8 °F 44.6 °F 100% 30.18 in 6.2 mi ENE 15.0 mph - N/A Rain Light Rain
10:00 AM 45 °F - 44 °F 97% 30.21 in 5 mi ENE 13.8 mph - - Rain Light Rain
10:20 AM 44.6 °F 38.8 °F 44.6 °F 100% 30.18 in 6.2 mi East 11.5 mph - N/A Rain Light Rain
10:50 AM 44.6 °F 37.8 °F 44.6 °F 100% 30.18 in 6.2 mi East 15.0 mph - N/A Rain Light Rain
11:00 AM 46 °F - 45 °F 94% 30.18 in 9 mi East 12.7 mph - - Rain Light Rain
11:20 AM 44.6 °F 37.4 °F 44.6 °F 100% 30.15 in 6.2 mi East 16.1 mph - N/A Rain Light Rain
11:50 AM 46.4 °F 39.8 °F 44.6 °F 93% 30.12 in 6.2 mi East 16.1 mph - N/A Rain Rain
12:00 PM 46 °F - 45 °F 95% 30.15 in 7 mi East 12.7 mph - - Rain Rain
12:20 PM 46.4 °F 39.5 °F 44.6 °F 93% 30.12 in 6.2 mi East 17.3 mph - N/A Rain Rain
12:50 PM 46.4 °F 41.1 °F 44.6 °F 93% 30.12 in 3.7 mi East 11.5 mph - N/A Rain Light Rain
1:00 PM 46 °F - 46 °F 97% 30.13 in 4 mi East 11.5 mph - - Rain Light Rain
1:20 PM 46.4 °F 41.1 °F 46.4 °F 100% 30.09 in 1.9 mi East 11.5 mph - N/A Rain Light Rain
1:50 PM 46.4 °F 42.4 °F 46.4 °F 100% 30.09 in 2.2 mi ESE 8.1 mph - N/A Rain Rain
2:00 PM 47 °F - 46 °F 94% 30.11 in 2 mi ESE 10.4 mph - - Rain Rain
2:20 PM 46.4 °F 41.1 °F 46.4 °F 100% 30.09 in 2.2 mi SE 11.5 mph - N/A Rain Rain
2:50 PM 46.4 °F 41.5 °F 46.4 °F 100% 30.06 in 1.9 mi SE 10.4 mph - N/A Rain Rain
3:00 PM 47 °F - 46 °F 95% 30.09 in 2 mi SE 11.5 mph - - Rain Rain
3:20 PM 46.4 °F 40.7 °F 46.4 °F 100% 30.06 in 2.2 mi SE 12.7 mph - N/A Rain Light Rain
3:50 PM 46.4 °F 40.1 °F 46.4 °F 100% 30.06 in 2.2 mi SE 15.0 mph - N/A Rain Light Rain
4:00 PM 47 °F - 46 °F 94% 30.07 in 2 mi SE 16.1 mph - - Rain Light Rain
4:20 PM 46.4 °F 40.4 °F 44.6 °F 93% 30.04 in 2.2 mi SSE 13.8 mph - N/A Rain Light Rain
4:50 PM 46.4 °F 41.1 °F 46.4 °F 100% 30.04 in 1.6 mi South 11.5 mph - N/A Rain Rain
5:00 PM 47 °F - 46 °F 94% 30.07 in 2 mi SSE 11.5 mph - - Rain Light Rain
5:20 PM 46.4 °F 41.5 °F 44.6 °F 93% 30.04 in 1.2 mi SSE 10.4 mph - N/A   Light Drizzle
5:50 PM 48.2 °F - 46.4 °F 93% 30.04 in 1.6 mi SSW 9.2 mph - N/A   Mostly Cloudy
6:00 PM 47 °F - 47 °F 98% 30.07 in 2 mi South 10.4 mph - - Rain Light Rain
6:20 PM 48.2 °F - 46.4 °F 93% 30.04 in 1.9 mi SW 11.5 mph - N/A   Mostly Cloudy
6:50 PM 48.2 °F - 48.2 °F 100% 30.04 in 5.0 mi SW 9.2 mph - N/A   Mostly Cloudy
7:00 PM 48 °F - 47 °F 96% 30.06 in 5 mi SW 9.2 mph - -   Mist
7:20 PM 48.2 °F - 48.2 °F 100% 30.04 in 6.2 mi WSW 13.8 mph - N/A   Mostly Cloudy
7:50 PM 48.2 °F - 46.4 °F 93% 30.06 in 6.2 mi West 16.1 mph - N/A   Mostly Cloudy
8:00 PM 49 °F - 47 °F 89% 30.07 in 12 mi West 15.0 mph - -   Mostly Cloudy
8:20 PM 48.2 °F - 46.4 °F 93% 30.06 in 6.2 mi West 19.6 mph - N/A   Scattered Clouds
8:50 PM 48.2 °F - 42.8 °F 82% 30.06 in 6.2 mi West 21.9 mph - N/A   Partly Cloudy
9:00 PM 48 °F - 44 °F 79% 30.09 in 25 mi West 20.7 mph - -   Scattered Clouds
9:20 PM 48.2 °F - 44.6 °F 87% 30.06 in 6.2 mi West 16.1 mph - N/A   Scattered Clouds
10:00 PM 48 °F - 44 °F 81% 30.09 in 31 mi West 16.1 mph - -   Partly Cloudy
11:00 PM 47 °F - 43 °F 82% 30.10 in 31 mi West 13.8 mph - -   Partly Cloudy